Location: Juzet
(42.9779°N, 0.7597°E)
Time: 02:59:43
(UTC+00:00)

Cosmos 2016 Rocket - Pass Details

Date: 14 July 2020
Orbit: 948 x 999 km, 83.0° (Epoch: 04 August)

Event Time Altitude Azimuth Distance (km) Brightness Sun altitude
Exits shadow 01:53:41 37° 196° (SSW) 1,449 4.4 -20.5°
Maximum altitude 01:56:18 80° 278° (W) 982 3.9 -20.3°
Drops below altitude 10° 02:02:33 10° 6° (N) 2,725 7.3 -19.8°
Sets 02:05:05 0° 7° (N) 3,684 8.2 -19.5°
